ICE11P BIKF-BIAR

Flight info

Callsign ICE11P
Flight time 0h 36m
Altitude 23000
Route LUTER2A LUTER DCT ASKUR
Aircraft B38M/M-SDE1FGHILORVWXY/HB1

Departure

Time 2026-05-07 13:36
Airport Keflavik International Airport (BIKF)

Arrival

Time 2026-05-07 14:12
Airport Akureyri International Airport (BIAR)
Time Latitude Longitude Altitude Speed Heading
2026-05-07 13:19 63.99379 -22.62194 144 ft 1 kts 238°
2026-05-07 13:20 63.99391 -22.62151 144 ft 4 kts 236°
2026-05-07 13:20 63.99392 -22.62149 141 ft 4 kts 236°
2026-05-07 13:21 63.99402 -22.62115 145 ft 4 kts 232°
2026-05-07 13:21 63.99421 -22.62071 145 ft 4 kts 214°
2026-05-07 13:22 63.99441 -22.62056 145 ft 3 kts 156°
2026-05-07 13:22 63.99445 -22.62060 145 ft 2 kts 150°
2026-05-07 13:27 63.99445 -22.62059 145 ft 0 kts 150°
2026-05-07 13:28 63.99441 -22.62054 145 ft 0 kts 147°
2026-05-07 13:29 63.99433 -22.62043 145 ft 5 kts 149°
2026-05-07 13:29 63.99377 -22.61990 145 ft 9 kts 172°
2026-05-07 13:29 63.99274 -22.61987 145 ft 17 kts 180°
2026-05-07 13:29 63.99200 -22.61986 145 ft 8 kts 179°
2026-05-07 13:30 63.99173 -22.61895 145 ft 7 kts 94°
2026-05-07 13:30 63.99174 -22.61784 148 ft 8 kts 87°
2026-05-07 13:30 63.99172 -22.61571 153 ft 19 kts 89°
2026-05-07 13:30 63.99172 -22.61220 161 ft 19 kts 90°
2026-05-07 13:31 63.99158 -22.60955 167 ft 7 kts 137°
2026-05-07 13:31 63.99073 -22.60934 171 ft 18 kts 179°
2026-05-07 13:31 63.98902 -22.60944 172 ft 32 kts 179°
2026-05-07 13:31 63.98631 -22.60940 170 ft 46 kts 180°
2026-05-07 13:32 63.98341 -22.60941 168 ft 41 kts 180°
2026-05-07 13:32 63.98047 -22.60940 170 ft 43 kts 179°
2026-05-07 13:32 63.97917 -22.60938 172 ft 44 kts 181°
2026-05-07 13:32 63.97817 -22.60938 172 ft 44 kts 180°
2026-05-07 13:33 63.97499 -22.60937 168 ft 47 kts 181°
2026-05-07 13:33 63.97185 -22.60940 159 ft 39 kts 180°
2026-05-07 13:33 63.96938 -22.60943 151 ft 36 kts 180°
2026-05-07 13:33 63.96675 -22.60943 141 ft 32 kts 180°
2026-05-07 13:34 63.96501 -22.60942 137 ft 15 kts 176°
2026-05-07 13:34 63.96461 -22.60817 140 ft 4 kts 90°
2026-05-07 13:34 63.96461 -22.60689 144 ft 12 kts 89°
2026-05-07 13:35 63.96466 -22.60575 146 ft 10 kts 65°
2026-05-07 13:35 63.96498 -22.60543 148 ft 6 kts 357°
2026-05-07 13:35 63.96650 -22.60545 153 ft 56 kts
2026-05-07 13:35 63.97316 -22.60540 171 ft 132 kts
2026-05-07 13:36 63.98364 -22.60620 648 ft 161 kts 358°
2026-05-07 13:36 63.99535 -22.60691 1791 ft 163 kts
2026-05-07 13:36 64.00625 -22.60688 2818 ft 166 kts
2026-05-07 13:36 64.01862 -22.60649 3394 ft 188 kts
2026-05-07 13:37 64.03255 -22.60615 3942 ft 213 kts
2026-05-07 13:37 64.04725 -22.60073 4914 ft 214 kts 26°
2026-05-07 13:37 64.05869 -22.57769 5767 ft 226 kts 58°
2026-05-07 13:37 64.06335 -22.54222 6507 ft 246 kts 84°
2026-05-07 13:38 64.06332 -22.50277 7378 ft 254 kts 86°
2026-05-07 13:38 64.06325 -22.46183 8265 ft 263 kts 86°
2026-05-07 13:38 64.06324 -22.41941 9162 ft 268 kts 82°
2026-05-07 13:38 64.06475 -22.37601 10120 ft 274 kts 80°
2026-05-07 13:39 64.06634 -22.33227 10766 ft 289 kts 82°
2026-05-07 13:39 64.06799 -22.28446 11274 ft 306 kts 82°
2026-05-07 13:39 64.06958 -22.23580 11934 ft 315 kts 81°
2026-05-07 13:39 64.07116 -22.18563 12837 ft 318 kts 82°
2026-05-07 13:40 64.07276 -22.13465 13619 ft 325 kts 82°
2026-05-07 13:40 64.07436 -22.08287 14403 ft 329 kts 82°
2026-05-07 13:40 64.07596 -22.03047 15128 ft 333 kts 82°
2026-05-07 13:40 64.07758 -21.97734 15852 ft 337 kts 82°
2026-05-07 13:41 64.07920 -21.92303 16575 ft 340 kts 82°
2026-05-07 13:41 64.08080 -21.86868 17250 ft 345 kts 82°
2026-05-07 13:41 64.08241 -21.81370 17952 ft 348 kts 82°
2026-05-07 13:41 64.08401 -21.75817 18606 ft 352 kts 82°
2026-05-07 13:42 64.08561 -21.70206 19232 ft 354 kts 82°
2026-05-07 13:42 64.08722 -21.64569 19841 ft 357 kts 82°
2026-05-07 13:42 64.08884 -21.58867 20385 ft 361 kts 82°
2026-05-07 13:42 64.09045 -21.53124 20935 ft 364 kts 82°
2026-05-07 13:43 64.09205 -21.47324 21476 ft 367 kts 82°
2026-05-07 13:43 64.09363 -21.41469 22010 ft 370 kts 82°
2026-05-07 13:43 64.09521 -21.35573 22548 ft 373 kts 82°
2026-05-07 13:43 64.09677 -21.29629 23095 ft 376 kts 82°
2026-05-07 13:44 64.09832 -21.23664 23203 ft 374 kts 82°
2026-05-07 13:44 64.09982 -21.17742 23186 ft 373 kts 82°
2026-05-07 13:44 64.10131 -21.11828 23203 ft 373 kts 82°
2026-05-07 13:44 64.10277 -21.05910 23199 ft 373 kts 82°
2026-05-07 13:45 64.10420 -20.99998 23197 ft 373 kts 82°
2026-05-07 13:45 64.10561 -20.94075 23195 ft 373 kts 82°
2026-05-07 13:45 64.10701 -20.88149 23210 ft 373 kts 82°
2026-05-07 13:45 64.10838 -20.82230 23190 ft 373 kts 82°
2026-05-07 13:46 64.10928 -20.78226 23191 ft 373 kts 82°
2026-05-07 13:46 64.11061 -20.72307 23193 ft 373 kts 82°
2026-05-07 13:46 64.11191 -20.66375 23191 ft 373 kts 82°
2026-05-07 13:46 64.11318 -20.60449 23193 ft 373 kts 82°
2026-05-07 13:47 64.11441 -20.54519 23200 ft 373 kts 84°
2026-05-07 13:47 64.11553 -20.48590 23201 ft 373 kts 83°
2026-05-07 13:47 64.11818 -20.42647 23175 ft 367 kts 71°
2026-05-07 13:47 64.12844 -20.37402 23183 ft 359 kts 51°
2026-05-07 13:48 64.14521 -20.33256 23203 ft 354 kts 37°
2026-05-07 13:48 64.16474 -20.29832 23198 ft 354 kts 34°
2026-05-07 13:48 64.18478 -20.26553 23195 ft 353 kts 32°
2026-05-07 13:48 64.20506 -20.23377 23187 ft 353 kts 31°
2026-05-07 13:49 64.22549 -20.20245 23204 ft 352 kts 31°
2026-05-07 13:49 64.24588 -20.17151 23212 ft 351 kts 31°
2026-05-07 13:49 64.26626 -20.14080 23204 ft 349 kts 30°
2026-05-07 13:49 64.28663 -20.11026 23201 ft 351 kts 30°
2026-05-07 13:50 64.30704 -20.07961 23204 ft 348 kts 30°
2026-05-07 13:50 64.32738 -20.04906 23195 ft 350 kts 31°
2026-05-07 13:50 64.34775 -20.01838 23206 ft 348 kts 30°
2026-05-07 13:50 64.36806 -19.98780 23196 ft 350 kts 30°
2026-05-07 13:51 64.38841 -19.95707 23221 ft 349 kts 29°
2026-05-07 13:51 64.40876 -19.92640 23201 ft 350 kts 30°
2026-05-07 13:51 64.42909 -19.89559 23218 ft 348 kts 30°
2026-05-07 13:51 64.44936 -19.86483 23204 ft 349 kts 30°
2026-05-07 13:52 64.46968 -19.83391 23210 ft 348 kts 29°
2026-05-07 13:52 64.48992 -19.80311 23203 ft 349 kts 30°
2026-05-07 13:52 64.51021 -19.77210 23219 ft 349 kts 29°
2026-05-07 13:52 64.53046 -19.74115 23197 ft 349 kts 30°
2026-05-07 13:53 64.55079 -19.71009 23198 ft 349 kts 29°
2026-05-07 13:53 64.57104 -19.67909 23195 ft 349 kts 30°
2026-05-07 13:53 64.59133 -19.64791 23244 ft 350 kts 30°
2026-05-07 13:53 64.61160 -19.61665 23219 ft 350 kts 30°
2026-05-07 13:54 64.63157 -19.58580 23229 ft 337 kts 30°
2026-05-07 13:54 64.65074 -19.55615 23218 ft 326 kts 30°
2026-05-07 13:54 64.66931 -19.52737 23077 ft 317 kts 30°
2026-05-07 13:54 64.68755 -19.49912 22739 ft 313 kts 30°
2026-05-07 13:55 64.70580 -19.47084 22368 ft 309 kts 30°
2026-05-07 13:55 64.72363 -19.44312 22039 ft 305 kts 30°
2026-05-07 13:55 64.74120 -19.41575 21712 ft 302 kts 30°
2026-05-07 13:55 64.75857 -19.38863 21383 ft 298 kts 30°
2026-05-07 13:56 64.77573 -19.36183 21057 ft 295 kts 30°
2026-05-07 13:56 64.79265 -19.33535 20743 ft 291 kts 30°
2026-05-07 13:56 64.80938 -19.30912 20397 ft 290 kts 30°
2026-05-07 13:56 64.82656 -19.28219 19905 ft 304 kts 30°
2026-05-07 13:57 64.84440 -19.25413 19458 ft 311 kts 30°
2026-05-07 13:57 64.86248 -19.22561 19022 ft 314 kts 30°
2026-05-07 13:57 64.88066 -19.19690 18590 ft 316 kts 30°
2026-05-07 13:57 64.89896 -19.16797 18046 ft 318 kts 31°
2026-05-07 13:58 64.91740 -19.13876 17502 ft 320 kts 31°
2026-05-07 13:58 64.93591 -19.10940 16995 ft 322 kts 31°
2026-05-07 13:58 64.95455 -19.07979 16473 ft 324 kts 31°
2026-05-07 13:58 64.97325 -19.05001 15962 ft 325 kts 31°
2026-05-07 13:59 64.99206 -19.02002 15446 ft 326 kts 31°
2026-05-07 13:59 65.01086 -18.98999 14962 ft 327 kts 31°
2026-05-07 13:59 65.02975 -18.95978 14464 ft 328 kts 31°
2026-05-07 13:59 65.04867 -18.92945 13978 ft 329 kts 31°
2026-05-07 14:00 65.06762 -18.89905 13428 ft 329 kts 32°
2026-05-07 14:00 65.08682 -18.86816 12879 ft 330 kts 32°
2026-05-07 14:00 65.10564 -18.83783 12367 ft 330 kts 32°
2026-05-07 14:00 65.12480 -18.80694 11851 ft 330 kts 32°
2026-05-07 14:01 65.14380 -18.77625 11344 ft 330 kts 32°
2026-05-07 14:01 65.16272 -18.74563 10837 ft 325 kts 32°
2026-05-07 14:01 65.18107 -18.71588 10423 ft 312 kts 32°
2026-05-07 14:01 65.19782 -18.68637 10348 ft 289 kts 43°
2026-05-07 14:02 65.20999 -18.65050 10357 ft 273 kts 50°
2026-05-07 14:02 65.22152 -18.61460 10096 ft 271 kts 50°
2026-05-07 14:02 65.23296 -18.57926 9752 ft 268 kts 50°
2026-05-07 14:02 65.24439 -18.54418 9406 ft 267 kts 50°
2026-05-07 14:03 65.25581 -18.50922 8710 ft 270 kts 50°
2026-05-07 14:03 65.26745 -18.47359 7930 ft 273 kts 50°
2026-05-07 14:03 65.27914 -18.43780 7230 ft 274 kts 50°
2026-05-07 14:03 65.29087 -18.40182 6581 ft 274 kts 50°
2026-05-07 14:04 65.30252 -18.36603 5980 ft 271 kts 50°
2026-05-07 14:04 65.31397 -18.33077 5454 ft 266 kts 50°
2026-05-07 14:04 65.32507 -18.29657 5116 ft 254 kts 49°
2026-05-07 14:04 65.33554 -18.26421 4896 ft 238 kts 49°
2026-05-07 14:05 65.34537 -18.23384 4724 ft 223 kts 49°
2026-05-07 14:05 65.35456 -18.20540 4540 ft 208 kts 48°
2026-05-07 14:05 65.36315 -18.17885 4426 ft 197 kts 49°
2026-05-07 14:05 65.37152 -18.15310 4293 ft 194 kts 49°
2026-05-07 14:06 65.37979 -18.12762 4426 ft 194 kts 47°
2026-05-07 14:06 65.38845 -18.10105 4758 ft 208 kts 48°
2026-05-07 14:06 65.39795 -18.07344 4917 ft 213 kts 37°
2026-05-07 14:06 65.41088 -18.05890 4865 ft 210 kts
2026-05-07 14:07 65.42574 -18.05945 4778 ft 214 kts 352°
2026-05-07 14:07 65.44068 -18.06169 4645 ft 215 kts 359°
2026-05-07 14:07 65.45560 -18.06148 4479 ft 214 kts 359°
2026-05-07 14:07 65.47034 -18.06183 4274 ft 205 kts 358°
2026-05-07 14:08 65.48413 -18.06256 4002 ft 194 kts 356°
2026-05-07 14:08 65.49757 -18.06352 3703 ft 193 kts 355°
2026-05-07 14:08 65.51045 -18.06440 3392 ft 177 kts 355°
2026-05-07 14:08 65.52217 -18.06505 3047 ft 161 kts 355°
2026-05-07 14:09 65.53305 -18.06579 2583 ft 153 kts 354°
2026-05-07 14:09 65.54349 -18.06664 2059 ft 146 kts 355°
2026-05-07 14:09 65.55336 -18.06734 1567 ft 141 kts 356°
2026-05-07 14:09 65.56292 -18.06695 1281 ft 136 kts 358°
2026-05-07 14:10 65.57238 -18.06589 1165 ft 135 kts 358°
2026-05-07 14:10 65.58183 -18.06408 1303 ft 138 kts
2026-05-07 14:10 65.59142 -18.06133 1245 ft 138 kts 359°
2026-05-07 14:10 65.60091 -18.06095 1195 ft 137 kts 354°
2026-05-07 14:11 65.61042 -18.06233 1073 ft 135 kts 354°
2026-05-07 14:11 65.61960 -18.06510 922 ft 131 kts 356°
2026-05-07 14:11 65.62861 -18.06651 628 ft 129 kts 355°
2026-05-07 14:11 65.63747 -18.06851 291 ft 127 kts 355°
2026-05-07 14:12 65.64617 -18.07004 46 ft 124 kts 356°
2026-05-07 14:12 65.65372 -18.07131 19 ft 74 kts 354°
2026-05-07 14:12 65.65560 -18.07164 21 ft 1 kts 348°
2026-05-07 14:12 65.65563 -18.07176 20 ft 0 kts 290°
2026-05-07 14:13 65.65562 -18.07181 20 ft 0 kts 264°
2026-05-07 14:13 65.65552 -18.07189 22 ft 4 kts 185°
2026-05-07 14:13 65.65494 -18.07182 19 ft 8 kts 211°
2026-05-07 14:13 65.65484 -18.07248 19 ft 11 kts 256°
2026-05-07 14:14 65.65476 -18.07370 20 ft 5 kts 258°
2026-05-07 14:14 65.65462 -18.07451 20 ft 5 kts 266°
2026-05-07 14:14 65.65471 -18.07484 20 ft 6 kts 314°
2026-05-07 14:14 65.65480 -18.07489 22 ft 0 kts 16°
2026-05-07 14:15 65.65483 -18.07486 21 ft 0 kts 20°